This is the latest recevied weather packets stored in our database for station/object DH4SBM. If no packets are shown the sender has not sent any weather packets the latest 10 day(s).
| Time | Temp. | Humidity | Pressure | Rain* | Wind** | Luminosity | Snow |
|---|---|---|---|---|---|---|---|
| 1777431343 | 10.56° C | 57% | 1021.4 hPa | 0 mm | - | 0 W/m² | - |
| 1777430743 | 10.56° C | 56% | 1021.4 hPa | 0 mm | - | 0 W/m² | - |
| 1777430143 | 10.56° C | 57% | 1021.5 hPa | 0 mm | - | 0 W/m² | - |
| 1777429542 | 10.56° C | 57% | 1021.4 hPa | 0 mm | - | 0 W/m² | - |
| 1777428943 | 11.11° C | 56% | 1021.3 hPa | 0 mm | - | 0 W/m² | - |
| 1777428342 | 11.11° C | 56% | 1021.3 hPa | 0 mm | - | 0 W/m² | - |
| 1777427742 | 11.11° C | 57% | 1021.2 hPa | 0 mm | - | 0 W/m² | - |
| 1777427142 | 11.11° C | 57% | 1021.2 hPa | 0 mm | - | 0 W/m² | - |
| 1777426542 | 11.11° C | 56% | 1021.1 hPa | 0 mm | - | 0 W/m² | - |
| 1777425942 | 11.67° C | 57% | 1021.1 hPa | 0 mm | - | 0 W/m² | - |
| 1777425342 | 11.67° C | 56% | 1021.2 hPa | 0 mm | - | 0 W/m² | - |
| 1777424742 | 11.67° C | 56% | 1021.2 hPa | 0 mm | - | 0 W/m² | - |
| 1777424142 | 11.67° C | 56% | 1021.1 hPa | 0 mm | - | 0 W/m² | - |
| 1777423542 | 11.67° C | 56% | 1021.1 hPa | 0 mm | - | 0 W/m² | - |
| 1777422936 | 12.22° C | 55% | 1021.1 hPa | 0 mm | - | 0 W/m² | - |
| 1777422336 | 12.22° C | 55% | 1021.1 hPa | 0 mm | - | 0 W/m² | - |
| 1777421736 | 12.22° C | 55% | 1021 hPa | 0 mm | - | 0 W/m² | - |
| 1777421136 | 12.22° C | 55% | 1021 hPa | 0 mm | - | 0 W/m² | - |
| 1777420536 | 12.22° C | 55% | 1020.9 hPa | 0 mm | - | 0 W/m² | - |
| 1777419936 | 12.78° C | 55% | 1020.9 hPa | 0 mm | - | 0 W/m² | - |
| 1777419336 | 12.78° C | 55% | 1021 hPa | 0 mm | - | 0 W/m² | - |
| 1777418736 | 12.78° C | 54% | 1020.9 hPa | 0 mm | - | 0 W/m² | - |
| 1777418136 | 12.78° C | 55% | 1020.7 hPa | 0 mm | - | 0 W/m² | - |
| 1777417536 | 13.33° C | 55% | 1020.9 hPa | 0 mm | - | 0 W/m² | - |
| 1777416936 | 12.78° C | 56% | 1020.7 hPa | 0 mm | - | 0 W/m² | - |
* Rain latest hour (hover to see other rain measurements)
** Current wind speed in m/s (hover to see current wind gust speed)